Regional Weather Roundup
Issued by NWS State College, PA

Home | Current Version | Previous Version | Graphics & Text | Print | Product List | Glossary On
Versions: 1 2 3 4 5 6 7 8 9 10 11 12 13 14 15 16 17 18 19 20 21 22 23 24 25 26 27 28 29 30 31 32 33 34 35 36 37 38 39 40 41 42 43 44 45 46 47 48 49 50
000
ASUS41 KCTP 251510
RWRCTP

REGIONAL WEATHER ROUNDUP
NATIONAL WEATHER SERVICE STATE COLLEGE PA
1100 AM EDT WED MAY 25 2016

Note: "fair" indicates few or no clouds below 12,000 feet with no
significant weather and/or obstructions to visibility.

* = STATION THAT DOES NOT REPORT PRECIPITATION /E.G. RAIN...SNOW...ETC/
    THUNDER OR FOG.

PAZ002>004-007>009-013>016-020>023-029>032-251600-
WESTERN PENNSYLVANIA

CITY           SKY/WX    TMP DP  RH WIND       PRES   REMARKS
ERIE           SUNNY     81  54  39 SW8       30.11R
MEADVILLE      SUNNY     72  52  49 VRB6      30.15R
FRANKLIN*      SUNNY     75  52  43 W9G16     30.19R
NEW CASTLE     FAIR      76  52  43 SW8       30.17R
BEAVER COUNTY  SUNNY     73  54  49 SW7       30.18R
BUTLER*        MOSUNNY   73  55  53 SW9       30.22R
PITTSBURGH INT CLOUDY    77  49  37 SW12G17   30.18R
PITTSBURGH     MOSUNNY   74  52  46 SW7       30.18R
INDIANA*       SUNNY     73  57  56 W10       30.23R
LATROBE        SUNNY     73  55  53 SW12      30.19S
WASHINGTON CO* MOSUNNY   73  55  53 SW7       30.20R
$$

PAZ004>006-010>012-017>019-024>028-033>037-041-042-045-046-049>053-251600-
CENTRAL PENNSYLVANIA

CITY           SKY/WX    TMP DP  RH WIND       PRES   REMARKS
BRADFORD       SUNNY     74  46  36 W6        30.17S
DUBOIS         MOSUNNY   72  51  47 W13       30.19R
CLEARFIELD     MOSUNNY   75  52  44 SW8       30.18R
JOHNSTOWN      SUNNY     72  47  40 W8        30.21R
ALTOONA        SUNNY     75  49  39 W7        30.19R
STATE COLLEGE  SUNNY     75  54  46 W8        30.15S
WILLIAMSPORT   SUNNY     74  50  42 VRB6      30.11F
SELINSGROVE    SUNNY     74  55  51 SE7       30.13S
FT INDIANTOWN  MOSUNNY   79  52  38 W13       30.12S
CAPITAL CITY   MOSUNNY   79  54  41 W9        30.13S
HARRISBURG     CLOUDY    79  54  41 NW9       30.12S
YORK           SUNNY     79  56  45 W5        30.14S
$$

PAZ038>040-043-044-047-048-054-055-060>062-067>071-251600-
EASTERN PENNSYLVANIA

CITY           SKY/WX    TMP DP  RH WIND       PRES   REMARKS
SCRANTON       SUNNY     74  47  38 VRB7      30.11F
MOUNT POCONO   SUNNY     72  38  29 NW12      30.14F
ALLENTOWN      SUNNY     78  48  34 VRB7      30.10F
QUAKERTOWN*    SUNNY     77  46  33 CALM      30.12F
READING        SUNNY     78  48  34 W5        30.11F
LANCASTER      SUNNY     78  57  48 W10G17    30.13S
COATESVILLE    SUNNY     77  52  41 NW9G16    30.14F
POTTSTOWN      SUNNY     77  50  38 NW7       30.13S
BLUE BELL      SUNNY     75  50  41 W3        30.11F
DOYLESTOWN     SUNNY     76  48  37 VRB6      30.10F
WILLOW GROVE   NOT AVBL
NORTH PHILA    SUNNY     81  50  33 W7        30.12F
PHILADELPHIA   MOSUNNY   80  43  26 VRB5      30.11F
$$



USA.gov is the U.S. government's official web portal to all federal, state and local government web resources and services.